Location: *
(42.5628°N, 2.3633°E)
Time: 18:39:58
(UTC+00:00)

Cosmos 2154 Rocket - Pass Details

Date: 30 March 2020
Orbit: 965 x 997 km, 82.9° (Epoch: 30 May)

Event Time Altitude Azimuth Distance (km) Brightness Sun altitude
Rises 20:09:07 0° 357° (N) 3,728 7.5 -20.9°
Reaches altitude 10° 20:11:46 10° 3° (N) 2,775 6.7 -21.3°
Maximum altitude 20:17:55 48° 77° (ENE) 1,279 4.3 -22.3°
Enters shadow 20:19:03 44° 107° (ESE) 1,357 4.3 -22.5°
